Regional Weather Roundup
Issued by NWS

Home | Current Version | Previous Version | Graphics & Text | Print | Product List | Glossary On
Versions: 1 2 3 4 5 6 7 8 9 10 11 12 13 14 15 16 17 18 19 20 21 22 23 24 25 26 27 28 29 30 31 32 33 34 35 36 37 38 39 40 41 42 43 44 45 46 47 48 49 50
000
ASUS45 KSLC 011310
RWRUT

UTAH REGIONAL WEATHER ROUNDUP
NATIONAL WEATHER SERVICE SALT LAKE CITY UT
700 AM MDT SAT AUG 01 2015

UTZ001>011-023>025-011400-

NORTHERN UTAH

CITY           SKY/WX    TMP DP  RH WIND       PRES   REMARKS
BRIGHAM CITY   PTCLDY    60  39  46 CALM      30.14R
HILL AFB       NOT AVBL
LOGAN          CLEAR     48  42  80 CALM      30.18R
OGDEN          CLEAR     62  35  36 S10       30.13R
PROVO AIRPORT  NOT AVBL
SALT LAKE CITY MOCLDY    67  36  31 E5        30.13R
VERNAL         CLEAR     59  35  40 NW5       30.21R
WENDOVER       PTCLDY    70  30  23 S3        30.12S
HEBER CITY     PTCLDY    45  36  70 CALM      30.26R
WEST JORDAN    CLEAR     63  36  36 CALM      30.15R

$$

UTZ012>022-026-027-011400-

SOUTHERN/CENTRAL UTAH

CITY           SKY/WX    TMP DP  RH WIND       PRES   REMARKS
BLANDING       CLOUDY    67  55  65 CALM      30.35R
BRYCE CANYON   PTCLDY    50  42  74 CALM      30.38R
CEDAR CITY     PTCLDY    61  44  53 CALM      30.22R
DELTA          MOCLDY    59  27  29 NE5       30.16R
HANKSVILLE     CLEAR     73  54  49 SE3       30.15R
MILFORD        MOCLDY    63  42  46 S9        30.17R
MOAB/CYNLANDS  CLEAR     72  50  45 NE6       30.14R
PRICE          CLEAR     63  33  32 E6        30.24R
ST GEORGE      MOSUNNY   79  54  41 E5        30.06R
KANAB          MOCLDY    64  54  68 CALM      30.25R

$$

REGIONAL REPORTS     COLORADO/ARIZONA

CITY           SKY/WX    TMP DP  RH WIND       PRES   REMARKS
CRAIG, CO      PTCLDY    45  36  70 CALM      30.30R
GRAND JUNCTION CLEAR     68  45  43 SE9       30.18R
RIFLE          PTCLDY    58  41  53 CALM      30.27R
MONTROSE       PTCLDY    60  48  64 S5        30.29R
CORTEZ         MOCLDY    63  58  83 NE3       30.29R
PAGE, AZ       CLOUDY    78  53  41 CALM      30.14R
GRAND CANYON   LGT RAIN  59  55  87 CALM      30.33R
KINGMAN        CLOUDY    79  54  41 SE5       30.08R
FLAGSTAFF      CLOUDY    58  56  93 CALM      30.35R

$$

REGIONAL REPORTS    NEVADA/IDAHO/WYOMING

CITY           SKY/WX    TMP DP  RH WIND       PRES   REMARKS
LAS VEGAS, NV  CLOUDY    88  55  32 SW3       29.90R
ELY            MOCLDY    53  28  38 S10       30.28R
ELKO           MOCLDY    55  27  34 CALM      30.20R
POCATELLO, ID  CLEAR     49  40  71 CALM      30.17R
BURLEY         PTCLDY    53  43  68 N3        30.13R
EVANSTON, WY   PTCLDY    54  28  36 E3        30.34R
ROCK SPRINGS   MOCLDY    55  28  35 SW5       30.31R
KEMMERER       PTCLDY    52  32  46 N9        30.36R

$$



USA.gov is the U.S. government's official web portal to all federal, state and local government web resources and services.